Notices

What's New in latest Release from April 7th, 2021:

- Updated Glossary, including Speed of Maximum Gust, and Total Hourly Precipitation

- Updated national and regional climate services offices contacts and prices information

- Addition of station inventory lists for 1981-2010, 1971-2000, and 1961-1990 Normals.

If you haven't already, please take our survey and provide feedback about our website: https://eccc.sondage-survey.ca/f/LanguageSelection.aspx?s=442ca660-fcf1-47c0-95a9-59707d6fd709

Hourly Data Report for September 28, 2019

QUALICUM BEACH AIRPORT
BRITISH COLUMBIA
Current Station Operator: ECCC - MSC

49°20'14.000" N
124°23'38.000" W
58.20 m
1026562
71766
VOQ

Download Data

Hourly Data (September 2019)
Hourly Data Report for September 28, 2019
TIME
LST
Temp Definition
°C
Dew Point Definition
°C
Rel Hum Definition
%
Precip. Amount Definition
mm

Wind Dir Definition
10's deg

Wind Spd Definition
km/h
Visibility Definition
km
Stn Press Definition
kPa
Hmdx Definition


Wind Chill Definition


Weather Definition


00:00 9.3 5.7 78 0.0 26 10   100.37     LegendNANA
01:00 10.5 5.7 72 0.0 30 15   100.38     LegendNANA
02:00 11.5 5.1 65 0.0 32 22   100.41     LegendNANA
03:00 11.6 5.2 65 0.0 32 23   100.42     LegendNANA
04:00 11.6 4.7 63 0.0 32 24   100.45     LegendNANA
05:00 11.5 4.2 61 0.0 32 24   100.51     LegendNANA
06:00 11.4 3.6 59 0.0 31 23   100.56     LegendNANA
07:00 11.2 3.8 60 0.0 30 21   100.63     LegendNANA
08:00 11.8 4.0 58 0.0 31 24   100.68     LegendNANA
09:00 12.4 3.4 54 0.0 32 22   100.70     LegendNANA
10:00 13.1 3.4 52 0.0 31 23   100.72     LegendNANA
11:00 14.1 2.0 44 0.0 32 20   100.71     LegendNANA
12:00 14.8 2.4 43 0.0 30 26   100.66     LegendNANA
13:00 15.0 1.1 39 0.0 32 23   100.63     LegendNANA
14:00 15.3 1.2 38 0.0 32 20   100.60     LegendNANA
15:00 15.5 3.0 43 0.0 32 21   100.55     LegendNANA
16:00 15.2 3.1 44 0.0 31 16   100.54     LegendNANA
17:00 14.8 3.0 45 0.0 31 15   100.55     LegendNANA
18:00 13.4 3.2 50 0.0 28 8   100.54     LegendNANA
19:00 13.5 1.2 43 0.0 31 13   100.55     LegendNANA
20:00 9.6 3.3 65 0.0 25 3   100.56     LegendNANA
21:00 7.0 3.2 77 0.0 21 4   100.56     LegendNANA
22:00 6.2 2.8 79 0.0 29 3   100.59     LegendNANA
23:00 5.6 2.3 79 0.0 30 5   100.62     LegendNANA

Notes on Data Quality.

Legend

  • E = Estimated
  • M = Missing
  • NA = Not Available*
  • [empty] = Indicates an unobserved value
Date modified: